Date String (YYYY-MM-DD hh:mm:ss) UTC,Instrument flags,Ambient pressure (hPa),Sample flow (lpm),Bypass flow (lpm),Sample temperature (°C),Ambient temperature (°C),ASC tube jacket temperature (°C),LED temperature (°C),Box temperature (°C),Sample RH (%),Span deviation,Mass concentration (μg/m³),Mass concentration (μg/m³),Mass concentration (μg/m³)
DateTimeUTC,F1_M11,P_M11,Q1_M11,Q2_M11,T1_M11,T2_M11,T3_M11,T4_M11,T5_M11,U1_M11,ZSPAN_M11,X0_M11,X2_M11,X1_M11
2021-10-08 12:00:00,,0827.4,4.99,0.00,30.6,29.7,00.0,39.7,32.3,14.3,0004.2,0019.86,0005.94,0004.36
2021-10-08 12:01:00,,0827.4,5.01,0.00,30.6,29.7,00.0,39.7,32.3,14.4,0004.2,0020.04,0005.98,0004.35
2021-10-08 12:02:00,,0827.4,4.99,0.00,30.6,29.7,00.0,39.7,32.3,14.4,0003.7,0020.58,0006.00,0004.36
2021-10-08 12:03:00,,0827.4,5.00,0.00,30.6,29.7,00.0,39.7,32.3,14.3,0003.1,0021.10,0005.99,0004.37
2021-10-08 12:04:00,,0827.5,4.99,0.00,30.6,29.7,00.0,39.7,32.3,14.3,0002.8,0020.55,0005.96,0004.39
2021-10-08 12:05:00,,0827.5,5.00,0.00,30.6,29.7,00.0,39.7,32.3,14.3,0002.7,0019.51,0005.99,0004.40
2021-10-08 12:06:00,,0827.5,5.00,0.00,30.6,29.7,00.0,39.7,32.3,14.4,0002.2,0019.09,0005.98,0004.40
2021-10-08 12:07:00,,0827.5,5.00,0.00,30.6,29.7,00.0,39.7,32.3,14.4,0001.5,0018.29,0005.96,0004.40
2021-10-08 12:08:00,,0827.5,4.99,0.00,30.6,29.7,00.0,39.7,32.3,14.3,0001.2,0017.75,0006.00,0004.42
2021-10-08 12:09:00,,0827.5,5.01,0.00,30.6,29.7,00.0,39.7,32.3,14.4,0000.1,0018.35,0006.09,0004.45
2021-10-08 12:10:00,,0827.5,5.00,0.00,30.6,29.7,00.0,39.7,32.3,14.3,0000.8,0018.63,0006.17,0004.49
2021-10-08 12:11:00,,0827.5,5.01,0.00,30.6,29.7,00.0,39.8,32.4,14.3,0000.9,0019.40,0006.26,0004.52
2021-10-08 12:12:00,,0827.5,4.99,0.00,30.6,29.7,00.0,39.8,32.4,14.3,0001.5,0020.44,0006.34,0004.57
2021-10-08 12:13:00,,0827.6,5.01,0.00,30.6,29.7,00.0,39.8,32.4,14.3,0001.3,0020.80,0006.34,0004.59
2021-10-08 12:14:00,,0827.6,5.01,0.00,30.6,29.7,00.0,39.8,32.4,14.4,0002.3,0020.00,0006.38,0004.59
2021-10-08 12:15:00,,0827.5,5.00,0.00,30.6,29.6,00.0,39.7,32.3,14.4,0002.8,0019.36,0006.36,0004.58
2021-10-08 12:16:00,,0827.5,5.00,0.00,30.5,29.6,00.0,39.7,32.2,14.4,0002.4,0018.86,0006.31,0004.58
2021-10-08 12:17:00,,0827.5,5.01,0.00,30.5,29.5,00.0,39.7,32.2,14.5,0001.6,0018.72,0006.25,0004.59
2021-10-08 12:18:00,,0827.5,5.01,0.00,30.5,29.5,00.0,39.7,32.2,14.5,0001.5,0018.36,0006.22,0004.59
2021-10-08 12:19:00,,0827.5,4.99,0.00,30.5,29.0,00.0,39.7,32.0,14.5,0000.5,0019.21,0006.27,0004.59
2021-10-08 12:20:00,,0827.5,4.99,0.00,30.3,26.8,00.0,39.6,31.4,14.7,0001.8,0019.75,0006.24,0004.57
2021-10-08 12:21:00,,0827.5,5.00,0.00,30.2,26.2,00.0,39.6,31.3,14.8,0001.2,0019.40,0006.20,0004.56
2021-10-08 12:22:00,,0827.5,4.99,0.00,30.1,26.5,00.0,39.5,31.3,14.8,0000.6,0019.14,0006.18,0004.56
2021-10-08 12:23:00,,0827.5,5.01,0.00,30.0,27.0,00.0,39.4,31.3,14.8,-000.3,0018.79,0006.17,0004.57
2021-10-08 12:24:00,,0827.6,5.00,0.00,29.9,27.4,00.0,39.4,31.4,14.8,-000.9,0019.50,0006.22,0004.60
2021-10-08 12:25:00,,0827.6,5.01,0.00,29.9,27.7,00.0,39.3,31.4,14.9,-001.1,0019.86,0006.31,0004.66
2021-10-08 12:26:00,,0827.6,4.99,0.00,29.9,28.0,00.0,39.3,31.5,14.9,-001.1,0020.43,0006.34,0004.69
2021-10-08 12:27:00,,0827.5,4.99,0.00,29.9,28.2,00.0,39.3,31.5,14.9,-000.6,0021.21,0006.49,0004.75
2021-10-08 12:28:00,,0827.6,5.00,0.00,30.0,28.4,00.0,39.2,31.6,14.9,-000.3,0022.26,0006.58,0004.80
2021-10-08 12:29:00,,0827.6,5.01,0.00,30.0,28.6,00.0,39.2,31.6,14.9,-000.3,0023.48,0006.68,0004.87
2021-10-08 12:30:00,,0827.6,5.00,0.00,30.0,28.7,00.0,39.2,31.7,14.9,-000.7,0023.41,0006.70,0004.92
2021-10-08 12:31:00,,0827.6,4.99,0.00,30.0,28.8,00.0,39.2,31.7,14.8,-000.4,0022.80,0006.70,0004.94
2021-10-08 12:32:00,,0827.7,5.00,0.00,30.0,28.9,00.0,39.2,31.7,14.8,-000.1,0022.55,0006.74,0004.97
2021-10-08 12:33:00,,0827.7,4.99,0.00,30.0,28.9,00.0,39.2,31.7,14.8,-000.2,0022.64,0006.74,0004.97
2021-10-08 12:34:00,,0827.6,5.00,0.00,30.0,29.0,00.0,39.2,31.8,14.8,0000.5,0023.25,0006.75,0004.97
2021-10-08 12:35:00,,0827.6,5.00,0.00,30.0,29.0,00.0,39.2,31.8,14.8,0001.6,0022.17,0006.71,0004.94
2021-10-08 12:36:00,,0827.7,5.02,0.00,30.1,29.1,00.0,39.2,31.8,14.7,0001.4,0021.46,0006.62,0004.91
2021-10-08 12:37:00,,0827.6,4.99,0.00,30.1,29.1,00.0,39.2,31.8,14.7,0000.8,0021.83,0006.57,0004.89
2021-10-08 12:38:00,,0827.6,5.01,0.00,30.1,29.1,00.0,39.2,31.9,14.7,0005.1,0021.73,0006.48,0004.87
2021-10-08 12:39:00,,0827.6,5.00,0.00,30.1,29.2,00.0,39.2,31.9,14.7,0003.4,0021.14,0006.48,0004.87
2021-10-08 12:40:00,,0827.6,5.00,0.00,30.1,29.2,00.0,39.2,31.9,14.7,0004.9,0019.73,0006.46,0004.85
2021-10-08 12:41:00,,0827.6,4.99,0.00,30.2,29.2,00.0,39.2,31.9,14.6,0003.9,0019.33,0006.50,0004.84
2021-10-08 12:42:00,,0827.7,4.99,0.00,30.2,29.2,00.0,39.3,32.0,14.6,0003.7,0018.43,0006.54,0004.85
2021-10-08 12:43:00,,0827.7,5.01,0.00,30.2,29.2,00.0,39.3,32.0,14.6,0003.4,0018.61,0006.55,0004.86
2021-10-08 12:44:00,,0827.7,4.99,0.00,30.2,29.3,00.0,39.3,32.0,14.6,0003.6,0018.43,0006.61,0004.87
2021-10-08 12:45:00,,0827.8,5.00,0.00,30.2,29.3,00.0,39.3,32.0,14.6,0003.3,0017.32,0006.54,0004.88
2021-10-08 12:46:00,,0827.8,5.02,0.00,30.2,29.3,00.0,39.3,32.0,14.6,0003.6,0016.86,0006.57,0004.90
2021-10-08 12:47:00,,0827.8,4.99,0.00,30.2,29.3,00.0,39.3,32.0,14.6,0003.2,0017.02,0006.60,0004.92
2021-10-08 12:48:00,,0827.8,5.01,0.00,30.2,29.3,00.0,39.3,32.0,14.6,0001.7,0018.03,0006.64,0004.94
2021-10-08 12:49:00,,0827.8,4.99,0.00,30.2,29.3,00.0,39.3,32.0,14.6,0000.4,0018.16,0006.63,0004.95
2021-10-08 12:50:00,,0827.8,5.00,0.00,30.3,29.3,00.0,39.3,32.0,14.6,0000.2,0018.11,0006.62,0004.96
2021-10-08 12:51:00,,0827.8,5.00,0.00,30.3,29.4,00.0,39.3,32.0,14.6,0001.0,0019.59,0006.64,0004.95
2021-10-08 12:52:00,,0827.8,5.00,0.00,30.3,29.4,00.0,39.3,32.0,14.5,0002.4,0021.32,0006.65,0004.96
2021-10-08 12:53:00,,0827.8,4.99,0.00,30.3,29.4,00.0,39.3,32.0,14.5,0002.4,0021.73,0006.68,0004.99
2021-10-08 12:54:00,,0827.9,5.00,0.00,30.3,29.4,00.0,39.4,32.0,14.5,0003.1,0022.02,0006.69,0005.01
2021-10-08 12:55:00,,0827.9,5.00,0.00,30.3,29.4,00.0,39.4,32.0,14.5,0003.4,0022.42,0006.71,0005.02
2021-10-08 12:56:00,,0827.9,4.99,0.00,30.3,29.4,00.0,39.4,32.1,14.5,0003.2,0023.13,0006.78,0005.03
2021-10-08 12:57:00,,0827.9,5.00,0.00,30.3,29.4,00.0,39.4,32.0,14.5,0002.8,0023.47,0006.77,0005.03
2021-10-08 12:58:00,,0827.9,5.00,0.00,30.3,29.4,00.0,39.4,32.0,14.5,0003.4,0023.66,0006.79,0005.04
2021-10-08 12:59:00,,0827.9,5.00,0.00,30.3,29.4,00.0,39.4,32.1,14.6,0004.0,0022.85,0006.78,0005.02
